Simultaneous Nadir Overpasses (SNOs) Predictions

Prediction of SNOs between AURA and NPP Satellite Orbit:

Table of predicted SNOs for the next 14.0 days since TLE Epoch: 11/25/2013
Index Date (AURA) Time (AURA) Lat,Lon (AURA) SZA (AURA ) Date (NPP) Time (NPP) Lat,Lon (NPP) SZA (NPP ) Distance(km) Time Diff (sec)
1 11/27/2013 02:52:39 78.83, 29.55 113.46 11/27/2013 02:52:38 78.82, 29.45 113.48 2.30 1
2 11/27/2013 03:40:37 -81.52,-134.69 71.09 11/27/2013 03:41:51 -81.13,-134.15 71.33 43.98 74
3 11/29/2013 18:19:45 -78.67, -23.10 65.85 11/29/2013 18:18:58 -78.67, -23.08 65.82 0.44 47
4 11/29/2013 19:09:03 78.99, 146.35 113.76 11/29/2013 19:09:34 78.98, 146.27 113.75 1.85 31
5 12/02/2013 10:36:09 -78.79, 93.46 65.55 12/02/2013 10:35:55 -78.79, 93.44 65.53 0.53 14
6 12/02/2013 11:25:28 79.06, -97.30 114.12 12/02/2013 11:26:32 79.06, -97.42 114.09 2.51 64
7 12/05/2013 02:03:10 78.65, 40.95 115.03 12/05/2013 02:02:12 78.66, 41.04 115.06 2.11 58
8 12/05/2013 02:52:32 -78.87,-150.19 65.24 12/05/2013 02:52:52 -78.86,-150.31 65.23 2.62 20
9 12/07/2013 18:19:33 78.73, 157.29 115.29 12/07/2013 18:19:10 78.73, 157.25 115.32 1.12 23




NCC Satellite Simultaneous Nadir Overpasses (SNOs) Prediction Service
